Location: Veyrier
(46.1830°N, 6.2000°E)
Time: 11:44:33
(UTC+02:00)

Daily predictions for brighter satellites

Satellite Brightness Start Highest point End
(mag) Time Altitude Azimuth Time Altitude Azimuth Time Altitude Azimuth
USA 267 3.3 20:55:41 10° NE 21:02:16 86° SE 21:08:49 10° SW
Cosmos 2360 Rocket 3.6 20:59:40 10° SE 21:03:15 17° E 21:06:51 10° ENE
Cosmos 1980 Rocket 2.6 20:57:53 10° SSW 21:03:34 75° WNW 21:09:18 10° NNE
Cosmos 1892 4.1 21:01:14 10° NNW 21:04:50 41° W 21:08:25 10° SSW
Cosmos 1655 Rocket 4.4 21:00:07 10° N 21:06:20 50° ENE 21:12:29 10° SSE
ERBS 3.7 21:05:10 10° WNW 21:08:21 34° SW 21:11:31 10° SSE
ATLAS CENTAUR R/B 4.3 21:08:06 10° WSW 21:09:35 13° SW 21:11:40 10° S
CZ-3B DEB 4.2 21:09:41 10° W 21:10:25 10° WSW 21:11:05 10° WSW
Cosmos 1707 Rocket 3.7 21:06:43 10° S 21:11:10 85° W 21:15:36 10° N
Abrixas rocket 2.2 21:10:32 10° WSW 21:13:51 85° NNW 21:17:08 10° ENE
Cosmos 1733 Rocket 3.5 21:09:38 10° N 21:13:58 46° ENE 21:18:14 10° SSE
Cosmos 1869 3.2 21:12:27 10° S 21:16:23 78° E 21:20:21 10° NNE
ATLAS 5 CENTAUR R/B 2.8 21:13:19 10° NNW 21:19:03 54° NE 21:25:19 10° ESE
H-2A R/B 4.4 21:17:54 10° SSW 21:21:31 36° W 21:25:06 10° NNW
SL-16 R/B 2.2 21:16:57 10° S 21:22:30 60° ESE 21:28:05 10° NNE
Cosmos 1862 Rocket 4.0 21:20:26 10° SSE 21:24:37 41° E 21:28:51 10° NNE
SPOT 5 4.3 21:25:08 10° ESE 21:28:40 21° ENE 21:32:06 10° NNE
Cosmos 1825 2.2 21:26:09 10° N 21:29:59 86° W 21:33:47 10° S
Cosmos 1503 Rocket 4.3 21:25:44 10° NNW 21:30:59 70° WSW 21:36:09 10° S
CZ-4B DEB 2.5 21:29:38 10° SSE 21:32:39 77° ENE 21:35:42 10° N
ARGOS 4.4 21:29:11 11° ESE 21:33:18 26° ENE 21:37:40 10° N
Cosmos 2279 Rocket 4.0 21:28:29 10° S 21:34:38 64° E 21:40:48 10° NNE
Helios 1A 3.2 21:31:30 10° S 21:35:44 75° WSW 21:40:00 10° NNW
Cosmos 1354 Rocket 4.5 21:30:50 10° NNW 21:36:03 62° WSW 21:41:14 10° S
USA 234 3.3 21:31:51 11° SE 21:38:15 84° SW 21:44:49 10° NW
Cosmos 2278 Rocket 4.3 21:36:52 10° N 21:39:47 14° NE 21:42:41 10° ENE
GENESIS II 4.3 21:36:12 10° SSW 21:40:13 61° ESE 21:44:14 10° NE
SAR-Lupe-4 3.9 21:36:43 10° S 21:40:17 65° WSW 21:43:52 10° NNW
Cosmos 968 Rocket 3.8 21:38:30 10° NNW 21:43:34 51° ENE 21:47:44 15° SE
CZ-4C R/B 4.2 21:38:21 10° NNW 21:43:53 26° NNE 21:49:59 10° E
Milstar 3 4.5 21:39:29 10° SW 21:44:27 18° SSW 21:48:47 10° SSE
Cosmos 1867 3.8 21:39:15 10° NNW 21:44:41 62° NE 21:49:00 16° SE
Cosmos 1844 Rocket 4.0 21:40:33 10° N 21:45:14 27° NE 21:49:09 13° E
Cosmos 1428 Rocket 4.4 21:40:39 10° N 21:46:48 83° E 21:52:55 10° S
BREEZE-M DEB (TANK) 3.5 21:44:02 10° W 21:47:18 88° S 21:56:53 10° E
USA 186 3.8 21:45:29 10° SSW 21:47:51 25° W 21:50:22 10° NW
Cosmos 1933 3.3 21:44:06 10° S 21:48:05 66° E 21:52:06 10° NNE
H-2A R/B 3.4 21:48:29 14° ESE 21:51:17 21° ENE 21:54:58 10° NNE
Cosmos 2242 Rocket 4.1 21:47:20 10° SSW 21:51:49 65° W 21:56:16 10° N
Cosmos 1408 3.9 21:50:03 10° NNW 21:53:33 41° W 21:56:59 10° SSW
Envisat 3.5 21:52:27 10° S 21:57:28 61° W 22:02:30 10° NNW
MOS 1-B Rocket 4.5 21:54:12 17° SE 21:58:16 40° ENE 22:03:26 10° N
Meteor 1-26 Rocket 4.5 21:54:14 10° SSE 21:59:41 50° E 22:05:17 10° NNE
MetOp-A 4.3 22:01:07 18° SE 22:05:04 59° ENE 22:10:21 10° N
Cosmos 1862 4.2 22:01:14 10° NNW 22:05:09 50° W 22:09:03 10° S
Cosmos 2219 Rocket 3.8 22:08:14 15° E 22:08:14 15° E 22:11:00 10° ENE
Resurs 01 Rocket 4.4 22:08:35 10° SW 22:11:20 16° W 22:14:07 10° NW
Meteor 1-29 4.1 22:08:54 10° N 22:12:16 46° WNW 22:15:35 10° SW
Atlas Centaur 2 4.0 22:10:06 10° SW 22:15:31 23° S 22:17:46 20° SSE
Cosmos 1782 4.0 22:19:36 24° E 22:19:44 24° E 22:22:58 10° NE
Meteor 2-10 Rocket 3.7 22:13:59 10° S 22:19:48 84° E 22:25:36 10° NNE
Cosmos 1939 Rocket 4.4 22:18:53 10° SSW 22:22:35 34° W 22:26:14 10° NNW
USA 229 DEB 3.8 22:16:18 10° SSW 22:22:51 52° ESE 22:29:33 10° NE
USA 229 3.8 22:16:24 10° SSW 22:22:57 52° ESE 22:29:38 10° NE
Terra 3.3 22:22:02 19° E 22:23:36 23° ENE 22:27:18 10° NNE
Helios 1B rocket 4.2 22:20:46 10° N 22:24:29 33° WNW 22:28:10 10° SW
ERS-1 Rocket 3.2 22:22:06 16° S 22:26:07 67° WSW 22:31:09 10° NNW
Lacrosse 4 Rocket 3.9 22:23:43 10° WNW 22:26:35 17° WSW 22:29:29 10° SSW
Cosmos 2263 Rocket 3.2 22:21:36 10° NW 22:26:48 41° WSW 22:31:30 12° S
BREEZE-M DEB (TANK) 4.5 22:23:05 10° WSW 22:27:37 71° SSE 22:44:20 10° ENE
Sich 1 Rocket 3.9 22:24:10 10° NNW 22:28:37 68° W 22:31:43 20° S
YAOGAN 6 3.6 22:27:00 16° SSW 22:29:36 42° W 22:33:04 10° NNW
H-2A R/B 3.3 22:29:01 24° E 22:30:04 26° ENE 22:33:42 10° N
Cosmos 2237 4.3 22:26:15 11° S 22:31:40 52° ESE 22:37:13 10° NE
Cosmos 1908 Rocket 4.0 22:28:31 10° NNW 22:32:48 60° W 22:35:40 20° S
SeaSat 1 2.4 22:31:44 31° SE 22:34:05 74° ENE 22:39:02 10° NNW
Meteor 1-14 Rocket 4.3 22:30:58 10° NNW 22:36:38 81° W 22:40:26 22° S
Cosmos 2322 Rocket 3.6 22:32:23 10° WSW 22:37:38 39° NW 22:42:55 10° NNE
SPOT 1/Viking Rocket 3.6 22:36:14 32° SE 22:38:35 64° ENE 22:43:45 10° N
COSMOS 2428 2.9 22:37:52 26° SSE 22:40:44 47° ESE 22:46:12 10° NE
USA 267 4.4 22:38:50 10° NE 22:44:58 44° NNW 22:51:05 10° W
Meteor 1-25 Rocket 4.1 22:40:19 10° N 22:45:57 89° ENE 22:48:44 31° S
Cosmos 2360 Rocket 2.3 22:40:54 10° SSW 22:46:32 76° WNW 22:52:15 10° NNE
Cosmos 1782 Rocket 3.7 22:42:45 10° NNW 22:47:07 72° W 22:48:58 34° S
USA 245 4.1 22:45:03 28° S 22:48:13 82° WSW 22:53:08 10° NNW
Abrixas rocket 2.7 22:47:34 10° WNW 22:50:49 55° N 22:51:20 48° NE
Cosmos 1777 Rocket 4.0 22:45:53 10° NNW 22:51:12 86° WSW 22:53:15 39° SSE
Cosmos 1844 3.8 22:48:05 10° NNW 22:53:45 61° ENE 22:55:42 39° ESE
Okean 2 Rocket 3.1 22:51:04 10° N 22:55:38 82° W 22:57:03 43° S
Nimbus 7 Rocket 4.3 22:50:15 10° NNE 22:56:13 74° ESE 22:59:43 26° S
Iridium 4 Rocket 4.4 22:53:24 10° NNE 22:56:27 24° ENE 22:56:27 24° ENE
Cosmos 2322 3.9 22:53:07 10° SSW 22:58:50 72° WNW 23:04:33 10° NNE
Meteor 1-20 Rocket 4.2 22:55:35 10° NNW 23:01:10 78° W 23:03:41 34° S
ATLAS 5 CENTAUR R/B 3.5 22:58:14 10° NW 23:03:42 36° WSW 23:06:53 23° SSW
SPOT 5 3.4 23:04:22 30° SSW 23:06:27 51° W 23:10:58 10° NNW
SL-16 R/B 4.4 23:02:17 10° WSW 23:07:01 27° NW 23:11:47 10° N
Okean 1-7 3.4 23:05:42 31° SSW 23:07:40 63° W 23:12:04 10° N
ASTEX 1 3.5 23:11:12 52° ESE 23:11:59 59° E 23:16:53 10° N
ARGOS 3.7 23:10:42 28° SSW 23:13:14 51° W 23:18:30 10° NNW
Cosmos 1633 3.0 23:09:56 10° N 23:13:03 54° NE 23:13:03 54° NE
Meteor 2-6 Rocket 4.3 23:14:23 43° S 23:16:26 75° E 23:22:23 10° NNE
Cosmos 1536 4.1 23:14:36 10° N 23:17:38 29° NE 23:17:38 29° NE
Cosmos 2333 Rocket 2.5 23:20:42 46° ESE 23:20:43 46° ESE 23:26:14 10° NE
Cosmos 2333 4.1 23:17:54 31° SSW 23:20:49 85° ESE 23:26:38 10° NNE
deb Chang Zheng 4 3.9 23:18:01 10° NNE 23:21:53 53° ENE 23:21:53 53° ENE
Cosmos 2237 Rocket 3.0 23:24:07 34° E 23:24:07 34° E 23:28:26 10° NE
Cosmos 2278 Rocket 2.4 23:19:30 10° NNW 23:25:08 60° ENE 23:26:17 50° ESE
Cosmos 1606 2.9 23:25:26 69° NW 23:25:26 69° NW 23:28:56 10° N
Cosmos 2151 Rocket 3.5 23:25:02 10° NNW 23:29:27 74° W 23:29:45 71° SW
Cosmos 1844 Rocket 3.0 23:24:02 10° NNW 23:29:30 57° WSW 23:30:49 45° SSW
CZ-4C R/B 4.5 23:30:58 32° NE 23:30:58 32° NE 23:33:31 10° N
H-2A R/B 2.4 23:29:07 43° SSW 23:30:22 54° W 23:35:13 10° NNW
Cosmos 2084 3.5 23:26:51 10° NW 23:30:14 61° N 23:30:14 61° N
DMSP B5D2-2 4.0 23:27:41 10° NNE 23:32:59 84° ESE 23:33:58 61° S
CZ-4C R/B 2.9 23:26:38 10° NW 23:33:37 71° NE 23:36:23 42° ESE
CRYOSAT 2 4.3 23:34:13 69° E 23:34:25 71° E 23:39:17 10° N
Geosat 3.9 23:29:42 10° NNE 23:34:42 66° ESE 23:34:42 66° ESE
NOSS 0 Rocket 4.0 23:34:56 53° ESE 23:35:12 53° ESE 23:41:10 10° NE
CARTOSAT-1 3.5 23:37:48 76° W 23:37:48 76° W 23:42:06 10° NNW
Cosmos 2298 Rocket 4.4 23:33:10 10° NNW 23:38:22 49° ENE 23:38:54 47° E
Cosmos 1553 Rocket 3.9 23:38:47 53° S 23:40:24 83° E 23:46:39 10° N
CZ-4B R/B 3.7 23:35:49 10° NNE 23:39:48 49° ENE 23:39:48 49° ENE
SL-08 R/B 4.4 23:34:56 10° N 23:41:08 85° W 23:42:33 56° S
Meteor 1-5 Rocket 4.4 23:37:20 10° N 23:42:51 54° ENE 23:43:24 52° E
Landsat 7 4.4 23:45:19 44° WSW 23:45:56 47° W 23:50:32 10° NNW
DELTA 2 DEB (DPAF) 4.3 23:46:38 64° NE 23:46:38 64° NE 23:50:45 10° N
Okean 1 Rocket 3.4 23:46:24 10° N 23:50:15 62° NNE 23:50:15 62° NNE
Cosmos 2219 Rocket 2.1 23:49:53 57° SW 23:51:04 85° WNW 23:56:45 10° NNE
Cosmos 1570 Rocket 4.0 23:51:31 62° SW 23:52:22 77° WNW 23:57:40 10° NNE
Meteor 1-27 Rocket 3.6 23:52:43 64° SSW 23:53:38 84° W 23:59:15 10° N
Cosmos 1782 4.5 23:55:13 27° W 23:55:58 28° WNW 23:59:29 10° NNW
